IRIDIUM 33 DEB, 35480

Orbit data source: Space-Track

IRIDIUM 33 DEB, 35480 is space debris in LEO originally from a launch on Sun, 14 Sep 1997 UTC launched from the Tyuratam Missile And Space Complex (TTMTR). The debris from Iridium 33, an American commercial communications satellite, has been tracked extensively since its accidental collision with the defunct Russian satellite Cosmos 2251 in 2009. This event, occurring at high speed in low Earth orbit (LEO), generated thousands of pieces of space debris, significantly increasing the risk of further collisions. The Iridium 33 debris cloud has impacted space traffic management and orbital debris mitigation strategies, making it a subject of ongoing study in space situational awareness.

Loading next visibility...
Identifier
35480, 1997-051QA
Orbit
LEO
Country
Flag of USUS
Related business
Manufacturer
Unknown
Mission
Spacecraft
Bus & Motor
Unknown
Mass
Unknown
Launch date (UTC)
1997-09-14 (29 years ago)
Launch vehicle
Unknown
Launch site
Tyuratam Missile And Space Complex (TTMTR)
Object type
Payload
Rocket body
Debris
Shape & HBR
Unknown shape, 0.1 m
Radar Cross Section
Small (<0.1 m²)

Expand to show TLE details & history
Last TLE update: 16 hours ago

TLE from 16 hours ago
0 IRIDIUM 33 DEB
1 35480U 97051QA  26208.65006451  .00001825  00000-0  45776-3 0  9995
2 35480  86.3552 286.4559 0015539  72.5660 287.7242 14.50796925903203
Epoch: 2026-07-27T15:36Z
TLE epoch observation values (Epoch: 2026-07-27T15:36:05.573Z)
Latitude
-0.00007°
Longitude
107.10208°
Altitude
722.776 km
Speed
7.496 km/s
True Right ascension
19h 05m 49s
True Declination
0° 00' 00"
Sunlit
Object was in full shadow at epoch
Visualization orbit readout
Latitude
Unknown
Longitude
Unknown
Altitude
Unknown
Speed
Unknown
Apparent Right ascension
Unknown
Apparent Declination
Unknown
Sunlit
N/A
Visualization observer readout
Local Sidereal Time
20:53:07
Azimuth
Unknown
Elevation
Unknown
Doppler factor
Unknown
Orbital elements
Apogee altitude
731.019 km
Perigee altitude
708.959 km
Semi-major axis
7,098.126 km
Eccentricity
0.00155
Inclination
86.3552°
RAAN
286.4559°
Arg. of periapsis
72.566°
True anomaly
287.55449°
Mean anomaly
287.7242°
Eccentric anomaly
287.63935°
Mean motion
3.62934 °/min
Orbital period
99.19 mins
BSTAR
0.00045776
Loading maneuver chart data...
Computing Atmospheric mass density...
Loading historical data...
Loading historical data...
Loading historical data...
Loading historical data...
Loading historical data...
Loading historical data...
Loading historical data...

Documentation

Showing up to 5 results
|